| time (UTC) | temp F | wind direction | speed MPH | gust MPH | rain 1hr in | rain 24hr in | rain mn in | humidity % | barometer mb |
| 20260504050328 | 53 | 209 | 2.0 | 6.0 | 0.00 | 0.02 | 0.00 | 57 | 1008.4 |
| 20260504050317 | 53 | 237 | 3.0 | 7.0 | 0.00 | 0.02 | 0.00 | 56 | 1008.4 |
| 20260504045317 | 53 | 243 | 1.0 | 3.0 | 0.00 | 0.02 | 0.00 | 58 | 1008.4 |
| 20260504044815 | 53 | 255 | 2.0 | 3.0 | 0.00 | 0.02 | 0.00 | 58 | 1008.4 |
| 20260504044314 | 53 | 208 | 2.0 | 3.0 | 0.00 | 0.02 | 0.00 | 58 | 1008.4 |
| 20260504043814 | 53 | 200 | 2.0 | 5.0 | 0.00 | 0.02 | 0.00 | 58 | 1008.4 |
| 20260504043538 | 53 | 196 | 2.0 | 5.0 | 0.00 | 0.02 | 0.00 | 59 | 1008.4 |
| 20260504042814 | 53 | 0 | 1.0 | 3.0 | 0.00 | 0.02 | 0.00 | 60 | 1008.5 |
| 20260504042534 | 53 | 216 | 1.0 | 3.0 | 0.00 | 0.02 | 0.00 | 60 | 1008.5 |
| 20260504041815 | 53 | 199 | 2.0 | 4.0 | 0.00 | 0.02 | 0.00 | 59 | 1008.5 |
| 20260504041315 | 53 | 188 | 2.0 | 4.0 | 0.00 | 0.02 | 0.00 | 57 | 1008.5 |
| 20260504041247 | 54 | 173 | 2.0 | 4.0 | 0.00 | 0.02 | 0.00 | 58 | 1008.5 |
| 20260504040528 | 54 | 195 | 2.0 | 4.0 | 0.00 | 0.02 | 0.00 | 58 | 1008.4 |
| 20260504040024 | 54 | 211 | 2.0 | 5.0 | 0.00 | 0.02 | 0.02 | 58 | 1008.5 |
| 20260504035909 | 54 | 231 | 2.0 | 4.0 | 0.00 | 0.02 | 0.02 | 58 | 1008.4 |
| 20260504034811 | 54 | 215 | 2.0 | 6.0 | 0.00 | 0.02 | 0.02 | 57 | 1008.4 |
| 20260504034311 | 55 | 169 | 2.0 | 6.0 | 0.00 | 0.02 | 0.02 | 57 | 1008.5 |
| 20260504033811 | 55 | 210 | 2.0 | 5.0 | 0.00 | 0.02 | 0.02 | 56 | 1008.4 |
| 20260504033311 | 55 | 270 | 2.0 | 6.0 | 0.00 | 0.02 | 0.02 | 56 | 1008.4 |
| 20260504032811 | 55 | 190 | 3.0 | 8.0 | 0.00 | 0.02 | 0.02 | 56 | 1008.4 |
| 20260504032311 | 55 | 251 | 3.0 | 8.0 | 0.00 | 0.02 | 0.02 | 55 | 1008.5 |
| 20260504032030 | 55 | 254 | 3.0 | 6.0 | 0.00 | 0.02 | 0.02 | 55 | 1008.5 |
| 20260504031546 | 55 | 277 | 3.0 | 7.0 | 0.00 | 0.02 | 0.02 | 55 | 1008.6 |
| 20260504030810 | 55 | 248 | 3.0 | 7.0 | 0.00 | 0.02 | 0.02 | 55 | 1008.6 |
| 20260504030311 | 55 | 251 | 3.0 | 7.0 | 0.00 | 0.02 | 0.02 | 56 | 1008.7 |
| 20260504030041 | 55 | 217 | 3.0 | 7.0 | 0.00 | 0.02 | 0.02 | 56 | 1008.7 |
| 20260504025311 | 55 | 254 | 3.0 | 6.0 | 0.00 | 0.02 | 0.02 | 56 | 1008.8 |
| 20260504024811 | 55 | 265 | 3.0 | 6.0 | 0.00 | 0.02 | 0.02 | 56 | 1008.9 |
| 20260504024311 | 55 | 248 | 3.0 | 7.0 | 0.00 | 0.02 | 0.02 | 55 | 1008.9 |
| 20260504023812 | 55 | 252 | 3.0 | 7.0 | 0.00 | 0.02 | 0.02 | 55 | 1008.9 |
| 20260504023303 | 55 | 238 | 3.0 | 7.0 | 0.00 | 0.02 | 0.02 | 55 | 1008.9 |
| 20260504022803 | 56 | 263 | 3.0 | 7.0 | 0.00 | 0.02 | 0.02 | 54 | 1008.9 |
| 20260504022742 | 56 | 224 | 3.0 | 8.0 | 0.00 | 0.02 | 0.02 | 53 | 1008.8 |
| 20260504022025 | 56 | 260 | 3.0 | 8.0 | 0.00 | 0.02 | 0.02 | 53 | 1008.8 |
| 20260504021303 | 56 | 293 | 4.0 | 11.0 | 0.00 | 0.02 | 0.02 | 53 | 1008.9 |
| 20260504020801 | 56 | 345 | 5.0 | 12.0 | 0.00 | 0.02 | 0.02 | 53 | 1009.1 |
| 20260504020536 | 55 | 256 | 4.0 | 12.0 | 0.00 | 0.02 | 0.02 | 53 | 1009.1 |
| 20260504015759 | 55 | 33 | 4.0 | 9.0 | 0.00 | 0.02 | 0.02 | 55 | 1009.2 |
| 20260504015753 | 55 | 267 | 4.0 | 14.0 | 0.00 | 0.02 | 0.02 | 54 | 1009.3 |
| 20260504014800 | 55 | 267 | 6.0 | 14.0 | 0.00 | 0.02 | 0.02 | 54 | 1009.3 |
| 20260504014300 | 55 | 278 | 6.0 | 14.0 | 0.00 | 0.02 | 0.02 | 54 | 1009.3 |
| 20260504013800 | 55 | 310 | 5.0 | 11.0 | 0.00 | 0.02 | 0.02 | 54 | 1009.4 |
| 20260504013300 | 55 | 315 | 4.0 | 10.0 | 0.00 | 0.02 | 0.02 | 55 | 1009.4 |
| 20260504013025 | 55 | 43 | 4.0 | 10.0 | 0.00 | 0.02 | 0.02 | 55 | 1009.5 |
| 20260504012300 | 55 | 24 | 4.0 | 10.0 | 0.00 | 0.02 | 0.02 | 55 | 1009.5 |
| 20260504011800 | 55 | 305 | 4.0 | 11.0 | 0.00 | 0.02 | 0.02 | 53 | 1009.5 |
| 20260504011301 | 56 | 243 | 4.0 | 11.0 | 0.01 | 0.02 | 0.02 | 52 | 1009.4 |
| 20260504010812 | 56 | 332 | 4.0 | 11.0 | 0.01 | 0.02 | 0.02 | 52 | 1009.4 |
| 20260504010520 | 56 | 295 | 5.0 | 13.0 | 0.01 | 0.02 | 0.02 | 51 | 1009.2 |
| 20260504005759 | 56 | 280 | 6.0 | 13.0 | 0.01 | 0.02 | 0.02 | 50 | 1009.1 |
| 20260504005259 | 56 | 288 | 5.0 | 12.0 | 0.02 | 0.02 | 0.02 | 50 | 1009.0 |
| 20260504005029 | 56 | 293 | 5.0 | 12.0 | 0.02 | 0.02 | 0.02 | 50 | 1008.9 |
| 20260504004529 | 56 | 292 | 5.0 | 12.0 | 0.02 | 0.02 | 0.02 | 51 | 1008.8 |
| 20260504003758 | 56 | 274 | 5.0 | 12.0 | 0.02 | 0.02 | 0.02 | 51 | 1008.8 |
| 20260504003258 | 56 | 253 | 5.0 | 12.0 | 0.02 | 0.02 | 0.02 | 51 | 1008.9 |
| 20260504002758 | 56 | 274 | 7.0 | 13.0 | 0.02 | 0.02 | 0.02 | 51 | 1008.8 |
| 20260504002258 | 56 | 280 | 8.0 | 19.0 | 0.02 | 0.02 | 0.02 | 50 | 1009.0 |
| 20260504001758 | 57 | 271 | 8.0 | 19.0 | 0.02 | 0.02 | 0.02 | 47 | 1009.0 |
| 20260504001312 | 57 | 294 | 6.0 | 18.0 | 0.01 | 0.01 | 0.01 | 47 | 1009.0 |
| 20260504000758 | 57 | 330 | 7.0 | 18.0 | 0.01 | 0.01 | 0.01 | 47 | 1008.8 |
| 20260504000258 | 57 | 291 | 9.0 | 25.0 | 0.01 | 0.01 | 0.01 | 46 | 1008.6 |
| 20260503235756 | 57 | 350 | 9.0 | 25.0 | 0.01 | 0.01 | 0.01 | 46 | 1008.6 |
| 20260503235257 | 58 | 287 | 8.0 | 19.0 | 0.00 | 0.00 | 0.00 | 45 | 1008.6 |
| 20260503234758 | 58 | 283 | 7.0 | 15.0 | 0.00 | 0.00 | 0.00 | 44 | 1008.5 |
| 20260503234257 | 58 | 279 | 6.0 | 13.0 | 0.00 | 0.00 | 0.00 | 42 | 1008.4 |
| 20260503234026 | 58 | 315 | 4.0 | 9.0 | 0.00 | 0.00 | 0.00 | 41 | 1008.4 |
| 20260503233256 | 58 | 304 | 3.0 | 9.0 | 0.00 | 0.00 | 0.00 | 42 | 1008.3 |
| 20260503232757 | 58 | 333 | 4.0 | 8.0 | 0.00 | 0.00 | 0.00 | 43 | 1008.3 |
| 20260503232256 | 58 | 258 | 4.0 | 13.0 | 0.00 | 0.00 | 0.00 | 43 | 1008.2 |
| 20260503231756 | 58 | 227 | 5.0 | 16.0 | 0.00 | 0.00 | 0.00 | 43 | 1008.1 |
| 20260503231530 | 58 | 297 | 7.0 | 16.0 | 0.00 | 0.00 | 0.00 | 41 | 1008.1 |
| 20260503230757 | 58 | 287 | 6.0 | 16.0 | 0.00 | 0.00 | 0.00 | 41 | 1008.4 |
| 20260503230254 | 58 | 240 | 5.0 | 11.0 | 0.00 | 0.00 | 0.00 | 41 | 1008.3 |
| 20260503225757 | 58 | 317 | 6.0 | 12.0 | 0.00 | 0.00 | 0.00 | 40 | 1008.3 |
| 20260503225256 | 58 | 280 | 6.0 | 12.0 | 0.00 | 0.00 | 0.00 | 40 | 1008.3 |
| 20260503224756 | 58 | 236 | 5.0 | 12.0 | 0.00 | 0.00 | 0.00 | 41 | 1008.4 |
| 20260503224255 | 58 | 276 | 5.0 | 11.0 | 0.00 | 0.00 | 0.00 | 42 | 1008.5 |
| 20260503223753 | 58 | 8 | 4.0 | 11.0 | 0.00 | 0.00 | 0.00 | 43 | 1008.6 |
| 20260503223254 | 58 | 283 | 3.0 | 10.0 | 0.00 | 0.00 | 0.00 | 44 | 1008.6 |
| 20260503222753 | 58 | 344 | 3.0 | 10.0 | 0.00 | 0.00 | 0.00 | 43 | 1008.5 |
| 20260503222254 | 58 | 299 | 3.0 | 8.0 | 0.00 | 0.00 | 0.00 | 43 | 1008.4 |
| 20260503221753 | 58 | 306 | 3.0 | 7.0 | 0.00 | 0.00 | 0.00 | 41 | 1008.3 |
| 20260503221254 | 58 | 287 | 3.0 | 9.0 | 0.00 | 0.00 | 0.00 | 43 | 1008.2 |
| 20260503220754 | 58 | 270 | 3.0 | 9.0 | 0.00 | 0.00 | 0.00 | 41 | 1008.2 |
| 20260503220256 | 58 | 251 | 3.0 | 9.0 | 0.00 | 0.00 | 0.00 | 41 | 1008.3 |
| 20260503215754 | 58 | 325 | 2.0 | 6.0 | 0.00 | 0.00 | 0.00 | 41 | 1008.3 |
| 20260503215253 | 58 | 275 | 2.0 | 5.0 | 0.00 | 0.00 | 0.00 | 42 | 1008.3 |
| 20260503214753 | 58 | 308 | 2.0 | 8.0 | 0.00 | 0.00 | 0.00 | 41 | 1008.3 |
| 20260503214253 | 58 | 50 | 3.0 | 10.0 | 0.00 | 0.00 | 0.00 | 41 | 1008.3 |
| 20260503214011 | 58 | 353 | 3.0 | 10.0 | 0.00 | 0.00 | 0.00 | 42 | 1008.4 |
| 20260503213251 | 58 | 305 | 3.0 | 10.0 | 0.00 | 0.00 | 0.00 | 41 | 1008.3 |
| 20260503212750 | 58 | 316 | 4.0 | 9.0 | 0.00 | 0.00 | 0.00 | 41 | 1008.3 |
| 20260503212250 | 58 | 291 | 4.0 | 9.0 | 0.00 | 0.00 | 0.00 | 41 | 1008.3 |
| 20260503211750 | 58 | 264 | 4.0 | 11.0 | 0.00 | 0.00 | 0.00 | 41 | 1008.4 |
| 20260503211251 | 58 | 326 | 4.0 | 11.0 | 0.00 | 0.00 | 0.00 | 42 | 1008.4 |
| 20260503210751 | 58 | 280 | 4.0 | 9.0 | 0.00 | 0.00 | 0.00 | 41 | 1008.5 |
| 20260503210733 | 57 | 260 | 4.0 | 9.0 | 0.00 | 0.00 | 0.00 | 42 | 1008.4 |
| 20260503205746 | 57 | 307 | 4.0 | 8.0 | 0.00 | 0.00 | 0.00 | 41 | 1008.5 |
| 20260503205244 | 57 | 240 | 3.0 | 14.0 | 0.00 | 0.00 | 0.00 | 42 | 1008.4 |
| 20260503204744 | 57 | 285 | 4.0 | 14.0 | 0.00 | 0.00 | 0.00 | 41 | 1008.6 |
| 20260503204242 | 56 | 334 | 5.0 | 14.0 | 0.00 | 0.00 | 0.00 | 42 | 1008.7 |
| 20260503203742 | 56 | 6 | 5.0 | 14.0 | 0.00 | 0.00 | 0.00 | 43 | 1008.7 |
| 20260503203255 | 56 | 186 | 5.0 | 11.0 | 0.00 | 0.00 | 0.00 | 43 | 1008.7 |
| 20260503202755 | 56 | 314 | 5.0 | 12.0 | 0.00 | 0.00 | 0.00 | 43 | 1008.8 |
| 20260503202510 | 56 | 287 | 5.0 | 13.0 | 0.00 | 0.00 | 0.00 | 43 | 1008.9 |
| 20260503201742 | 56 | 308 | 5.0 | 13.0 | 0.00 | 0.00 | 0.00 | 44 | 1008.9 |
| 20260503201243 | 56 | 329 | 4.0 | 12.0 | 0.00 | 0.00 | 0.00 | 43 | 1009.0 |
| 20260503200742 | 56 | 297 | 5.0 | 11.0 | 0.00 | 0.00 | 0.00 | 43 | 1009.2 |
| 20260503200243 | 57 | 344 | 4.0 | 11.0 | 0.00 | 0.00 | 0.00 | 42 | 1009.2 |
| 20260503195741 | 56 | 324 | 4.0 | 10.0 | 0.00 | 0.00 | 0.00 | 43 | 1009.3 |
| 20260503195508 | 56 | 245 | 4.0 | 10.0 | 0.00 | 0.00 | 0.00 | 41 | 1009.4 |
| 20260503194737 | 56 | 42 | 3.0 | 8.0 | 0.00 | 0.00 | 0.00 | 41 | 1009.4 |
| 20260503194237 | 55 | 254 | 3.0 | 10.0 | 0.00 | 0.00 | 0.00 | 43 | 1009.5 |
| 20260503193736 | 55 | 161 | 5.0 | 13.0 | 0.00 | 0.00 | 0.00 | 45 | 1009.6 |
| 20260503193505 | 55 | 308 | 5.0 | 13.0 | 0.00 | 0.00 | 0.00 | 42 | 1009.6 |
| 20260503192735 | 56 | 306 | 4.0 | 9.0 | 0.00 | 0.00 | 0.00 | 43 | 1009.7 |
| 20260503192234 | 56 | 324 | 5.0 | 13.0 | 0.00 | 0.00 | 0.00 | 43 | 1009.8 |
| 20260503191735 | 55 | 286 | 5.0 | 13.0 | 0.00 | 0.00 | 0.00 | 43 | 1009.9 |
| 20260503191234 | 55 | 259 | 6.0 | 14.0 | 0.00 | 0.00 | 0.00 | 43 | 1009.8 |
| 20260503190735 | 55 | 290 | 6.0 | 14.0 | 0.00 | 0.00 | 0.00 | 44 | 1010.1 |
| 20260503190235 | 55 | 289 | 5.0 | 12.0 | 0.00 | 0.00 | 0.00 | 44 | 1010.1 |
| 20260503185734 | 55 | 343 | 5.0 | 12.0 | 0.00 | 0.00 | 0.00 | 45 | 1009.9 |
| 20260503185232 | 54 | 289 | 6.0 | 13.0 | 0.00 | 0.00 | 0.00 | 46 | 1010.0 |
| 20260503184730 | 54 | 330 | 6.0 | 15.0 | 0.00 | 0.00 | 0.00 | 45 | 1010.0 |
| 20260503184450 | 55 | 256 | 6.0 | 15.0 | 0.00 | 0.00 | 0.00 | 44 | 1010.0 |
| 20260503183730 | 55 | 285 | 6.0 | 14.0 | 0.00 | 0.00 | 0.00 | 44 | 1010.0 |
| 20260503183450 | 55 | 294 | 5.0 | 13.0 | 0.00 | 0.00 | 0.00 | 43 | 1009.9 |
| 20260503182731 | 55 | 253 | 5.0 | 11.0 | 0.00 | 0.00 | 0.00 | 45 | 1010.1 |
| 20260503182230 | 55 | 10 | 6.0 | 13.0 | 0.00 | 0.00 | 0.00 | 44 | 1010.1 |
| 20260503181731 | 54 | 286 | 6.0 | 13.0 | 0.00 | 0.00 | 0.00 | 47 | 1010.2 |
| 20260503181230 | 54 | 280 | 6.0 | 13.0 | 0.00 | 0.00 | 0.00 | 46 | 1010.2 |
| 20260503180729 | 54 | 288 | 6.0 | 13.0 | 0.00 | 0.00 | 0.00 | 46 | 1010.4 |
| 20260503180230 | 53 | 232 | 6.0 | 13.0 | 0.00 | 0.00 | 0.00 | 47 | 1010.2 |
| 20260503175729 | 54 | 280 | 6.0 | 13.0 | 0.00 | 0.00 | 0.00 | 46 | 1010.3 |
| 20260503175230 | 54 | 263 | 6.0 | 12.0 | 0.00 | 0.00 | 0.00 | 44 | 1010.4 |
| 20260503174731 | 55 | 221 | 6.0 | 13.0 | 0.00 | 0.00 | 0.00 | 44 | 1010.3 |
| 20260503174227 | 55 | 317 | 6.0 | 13.0 | 0.00 | 0.00 | 0.00 | 43 | 1010.5 |
| 20260503173728 | 55 | 273 | 4.0 | 12.0 | 0.00 | 0.00 | 0.00 | 44 | 1010.5 |
| 20260503173227 | 54 | 343 | 4.0 | 12.0 | 0.00 | 0.00 | 0.00 | 43 | 1010.6 |
| 20260503172728 | 53 | 258 | 4.0 | 9.0 | 0.00 | 0.00 | 0.00 | 48 | 1010.7 |
| 20260503172227 | 53 | 335 | 5.0 | 12.0 | 0.00 | 0.00 | 0.00 | 47 | 1010.7 |
| 20260503171728 | 53 | 353 | 4.0 | 12.0 | 0.00 | 0.00 | 0.00 | 46 | 1010.7 |
| 20260503171227 | 54 | 335 | 4.0 | 10.0 | 0.00 | 0.00 | 0.00 | 47 | 1010.8 |
| 20260503170741 | 55 | 309 | 4.0 | 10.0 | 0.00 | 0.00 | 0.00 | 45 | 1010.9 |
| 20260503170227 | 55 | 285 | 4.0 | 10.0 | 0.00 | 0.00 | 0.00 | 43 | 1010.9 |
| 20260503150716 | 49 | 333 | 4.0 | 14.0 | 0.00 | 0.00 | 0.00 | 46 | 1012.5 |
| 20260503150229 | 49 | 6 | 5.0 | 14.0 | 0.00 | 0.00 | 0.00 | 47 | 1012.6 |
| 20260503140213 | 46 | 337 | 5.0 | 14.0 | 0.00 | 0.00 | 0.00 | 52 | 1013.0 |
| 20260503131219 | 44 | 331 | 4.0 | 10.0 | 0.00 | 0.00 | 0.00 | 62 | 1013.2 |
| 20260503130706 | 45 | 280 | 4.0 | 10.0 | 0.00 | 0.00 | 0.00 | 63 | 1013.2 |
| 20260503130206 | 44 | 271 | 4.0 | 9.0 | 0.00 | 0.00 | 0.00 | 64 | 1013.3 |
| 20260503120204 | 42 | 315 | 4.0 | 10.0 | 0.00 | 0.00 | 0.00 | 74 | 1013.3 |
| 20260503110658 | 39 | 17 | 2.0 | 6.0 | 0.00 | 0.00 | 0.00 | 84 | 1012.9 |
| 20260503110159 | 39 | 303 | 2.0 | 6.0 | 0.00 | 0.00 | 0.00 | 84 | 1012.8 |
| 20260503100158 | 38 | 281 | 3.0 | 7.0 | 0.00 | 0.00 | 0.00 | 87 | 1012.5 |
| 20260503090156 | 39 | 271 | 3.0 | 7.0 | 0.00 | 0.00 | 0.00 | 85 | 1012.5 |
| 20260503081148 | 40 | 293 | 4.0 | 9.0 | 0.00 | 0.00 | 0.00 | 80 | 1012.6 |
| 20260503080648 | 40 | 331 | 4.0 | 8.0 | 0.00 | 0.00 | 0.00 | 79 | 1012.6 |
| 20260503080149 | 40 | 328 | 3.0 | 8.0 | 0.00 | 0.00 | 0.00 | 79 | 1012.6 |
| 20260503072649 | 41 | 282 | 3.0 | 7.0 | 0.00 | 0.00 | 0.00 | 79 | 1012.4 |
| 20260503072148 | 41 | 272 | 3.0 | 8.0 | 0.00 | 0.00 | 0.00 | 79 | 1012.5 |
| 20260503071647 | 41 | 339 | 3.0 | 8.0 | 0.00 | 0.00 | 0.00 | 79 | 1012.5 |
| 20260503071145 | 41 | 317 | 3.0 | 7.0 | 0.00 | 0.00 | 0.00 | 79 | 1012.5 |
| 20260503070646 | 41 | 334 | 3.0 | 8.0 | 0.00 | 0.00 | 0.00 | 79 | 1012.5 |
| 20260503070146 | 41 | 328 | 3.0 | 8.0 | 0.00 | 0.00 | 0.00 | 79 | 1012.5 |
| 20260503054643 | 41 | 314 | 2.0 | 5.0 | 0.00 | 0.00 | 0.00 | 80 | 1012.8 |
| 20260503054143 | 41 | 278 | 2.0 | 6.0 | 0.00 | 0.00 | 0.00 | 80 | 1012.8 |
| 20260503053906 | 41 | 288 | 2.0 | 6.0 | 0.00 | 0.00 | 0.00 | 79 | 1012.8 |
| 20260503053143 | 41 | 270 | 2.0 | 6.0 | 0.00 | 0.00 | 0.00 | 79 | 1012.9 |